sat.trackr.live / text

‹ back to catalog

ONEWEB-0313

NORAD 49099 · 2021-075AA

PAYLOAD ACTIVE UNKNOWN

§ Identity

Operator
Country
UK
Launch date
2021-08-21
Launch site
TYMSC
Launch vehicle
Mass (kg)
RCS (m²)

Purposes: comms

External: N2YO · Heavens-Above · Gunter

§ Orbital elements

Epoch: 2026-09-20T04:30:41.958432Z

Period
109.29 min
Inclination
87.9200°
Eccentricity
0.0001909
Mean motion
13.17650467 rev/d
Perigee alt
1,192.3 km
Apogee alt
1,195.2 km
Semi-major
7,571.8 km
B*
1.8106e-4
RAAN
347.0121°
Arg perigee
104.4905°
Mean anomaly
255.6438°
Rev number
24,610

§ Raw data

ONEWEB-03131 49099U 21075AA  26263.18798563  .00000083  00000+0  18106-3 0  99912 49099  87.9200 347.0121 0001909 104.4905 255.6438 13.17650467246105

JSON: /api/v1/satellites/49099 · /tle

For live sub-satellite position, see the globe view (requires WebGL).

§ Visibility from observer

Set your observer location to see the next 7 days of passes ≥ 10°. The values pass through the URL so the page stays shareable.

No JS? Fill the form by hand. The geolocation button needs JavaScript.